Probability
52 48 65 65 68 65 65 61 58 58 55 58 58 52 48 42 42 42 39 32 32 29 29 19 19 23 19 10 16 13 10 13 6 6 3 6 6 6 0 6 6 0 3
52 52 65 68 68 65 65 65 61 55 48 58 55 45 42 42 39 39 35 32 26 23 19 19 19 13 13 13 10 6 10 6 3 3 3 3 3 3 0 6 6 0 3
52 52 61 68 68 68 65 61 58 52 48 48 48 48 42 39 35 32 29 29 26 23 16 16 13 13 13 13 6 10 6 6 6 0 3 0 0 3 0 3 3 3 3
48 52 58 68 68 65 61 61 55 52 45 48 48 48 35 29 29 32 32 26 23 23 13 13 10 10 10 10 13 13 10 10 10 3 0 0 0 6 6 3 0 0 0
52 52 65 68 65 65 61 58 58 45 45 45 39 39 32 32 29 26 23 19 16 13 13 13 13 6 10 13 13 13 13 10 6 0 0 0 0 3 10 6 6 3 0
52 52 61 65 65 65 58 52 55 39 35 35 35 35 32 29 29 23 23 16 13 13 13 13 10 6 6 6 10 10 6 10 3 0 0 0 0 6 6 3 10 6 6
42 52 52 61 58 55 55 52 42 39 35 35 35 35 35 32 23 19 19 16 13 13 13 13 6 6 6 10 10 10 6 6 3 0 0 0 0 6 6 3 3 3 3
39 52 48 55 52 52 48 48 35 35 32 32 32 32 32 29 19 16 16 13 10 13 13 13 3 3 3 6 6 6 3 3 3 0 0 0 3 6 6 3 3 3 3
39 45 48 45 45 48 48 39 35 32 32 32 32 32 26 16 16 10 10 6 10 6 6 6 10 6 3 3 6 3 3 0 0 0 0 0 3 6 6 6 3 0 0
35 32 35 29 32 32 32 32 29 29 29 29 26 23 13 13 16 13 6 10 10 6 6 6 6 6 3 0 3 3 0 0 0 0 0 0 3 3 3 3 0 0 0
35 29 29 29 26 19 26 26 23 23 26 23 13 13 6 6 6 6 3 6 10 6 3 3 3 6 0 0 0 0 0 0 0 0 0 0 0 3 3 3 3 0 0
29 29 26 26 19 23 26 19 19 19 16 16 13 10 6 6 6 3 3 3 3 3 3 3 3 0 0 0 0 0 0 0 0 0 0 0 0 0 3 3 3 3 0
29 29 26 23 19 19 23 19 19 16 16 13 10 10 6 6 6 3 0 3 3 3 0 0 0 0 0 0 0 0 0 0 0 0 0 0 0 0 0 0 3 3 3
26 26 26 23 23 16 19 13 19 16 16 10 10 10 10 6 6 6 0 3 3 0 0 0 0 0 0 0 0 0 0 0 0 0 0 0 0 0 0 0 0 3 3
23 23 23 23 19 19 16 16 13 13 13 6 6 10 6 6 6 3 3 3 0 0 0 0 0 0 0 0 0 0 0 0 0 0 0 0 0 0 0 0 0 0 0
16 19 19 19 16 16 19 16 13 13 10 10 6 6 6 6 6 6 3 3 0 0 0 0 0 0 0 0 0 0 0 0 0 0 0 0 0 0 0 0 0 0 0
10 13 10 13 16 13 16 13 6 6 10 10 6 6 6 6 6 3 3 0 0 0 0 0 0 0 0 0 0 0 0 0 0 0 0 0 0 0 0 0 0 0 0
3 10 6 6 10 10 10 13 13 10 6 6 3 3 3 3 3 3 3 0 0 0 0 0 0 0 0 0 0 0 0 0 0 0 0 0 0 0 0 0 0 0 0
3 6 6 6 6 10 10 13 10 6 6 6 3 3 3 3 3 3 3 0 0 0 0 0 0 0 0 0 0 0 0 0 0 0 0 0 0 0 0 0 0 0 0
6 6 6 6 3 6 10 10 6 6 6 6 6 6 6 3 3 3 0 0 0 0 0 0 0 0 0 0 0 0 0 0 0 0 0 0 0 0 0 0 0 0 0
3 6 6 3 0 3 3 3 3 3 6 3 3 6 3 3 0 0 0 0 0 0 0 0 0 0 0 0 0 0 0 0 0 0 0 0 0 0 0 0 0 0 0
3 6 6 6 0 3 3 3 3 0 0 0 0 0 0 0 0 0 0 0 0 0 0 0 0 0 0 0 0 0 0 0 0 0 0 0 0 0 0 0 0 0 0
3 3 6 3 0 0 3 3 0 0 0 0 0 0 0 0 0 0 0 0 0 0 0 0 0 0 0 0 0 0 0 0 0 0 0 0 0 0 0 0 0 0 0
0 3 3 0 0 0 3 0 0 0 0 0 0 0 0 0 0 0 0 0 0 0 0 0 0 0 0 0 0 0 0 0 0 0 0 0 0 0 0 0 0 0 0
0 3 0 0 0 0 3 0 0 0 0 0 0 0 0 0 0 0 0 0 0 0 0 0 0 0 0 0 0 0 0 0 0 0 0 0 0 0 0 0 0 0 0
0 0 0 0 0 0 3 0 0 0 0 0 0 0 0 0 0 0 0 0 0 0 0 0 0 0 0 0 0 0 0 0 0 0 0 0 0 0 0 0 0 0 0
Height
5860 5861 5863 5864 5866 5867 5868 5870 5871 5871 5872 5873 5874 5874 5875 5875 5876 5876 5877 5877 5877 5877 5877 5877 5877 5876 5876 5876 5875 5875 5874 5874 5873 5872 5872 5871 5870 5870 5869 5868 5867 5867 5866
5857 5858 5860 5862 5863 5865 5866 5868 5869 5870 5871 5872 5872 5873 5874 5874 5875 5875 5875 5875 5876 5876 5876 5875 5875 5875 5874 5874 5873 5873 5872 5872 5871 5870 5870 5869 5868 5868 5867 5866 5865 5864 5863
5854 5856 5857 5859 5861 5863 5864 5865 5867 5868 5869 5870 5871 5871 5872 5872 5873 5873 5873 5874 5874 5874 5874 5874 5873 5873 5872 5872 5872 5871 5870 5870 5869 5868 5867 5866 5866 5865 5864 5863 5862 5861 5860
5851 5853 5854 5856 5858 5860 5861 5863 5864 5865 5867 5868 5869 5869 5870 5871 5871 5871 5871 5872 5872 5872 5872 5871 5871 5871 5870 5870 5869 5868 5868 5867 5866 5865 5865 5864 5863 5862 5861 5860 5859 5858 5856
5847 5849 5851 5853 5855 5857 5858 5860 5861 5863 5864 5865 5866 5867 5868 5868 5869 5869 5869 5869 5869 5869 5869 5869 5869 5868 5868 5867 5866 5866 5865 5864 5863 5862 5861 5860 5859 5858 5857 5856 5855 5854 5853
5843 5846 5848 5850 5852 5854 5855 5857 5858 5860 5861 5862 5863 5864 5865 5865 5866 5866 5867 5867 5867 5867 5866 5866 5866 5865 5865 5864 5863 5863 5862 5861 5860 5859 5858 5857 5856 5855 5853 5852 5851 5849 5848
5839 5841 5844 5846 5848 5850 5852 5853 5855 5856 5858 5859 5860 5861 5862 5862 5863 5863 5864 5864 5864 5864 5863 5863 5863 5862 5861 5861 5860 5859 5858 5857 5856 5855 5854 5853 5852 5850 5849 5848 5846 5845 5843
5834 5837 5839 5842 5844 5846 5848 5850 5851 5853 5854 5855 5857 5858 5858 5859 5860 5860 5860 5861 5861 5860 5860 5860 5859 5858 5858 5857 5856 5855 5854 5853 5852 5851 5850 5849 5847 5846 5844 5843 5841 5840 5838
5829 5832 5835 5837 5840 5842 5844 5846 5848 5849 5851 5852 5853 5854 5855 5856 5856 5857 5857 5857 5857 5857 5856 5856 5855 5855 5854 5853 5852 5851 5850 5849 5848 5846 5845 5844 5842 5840 5839 5837 5836 5834 5832
5824 5827 5830 5833 5835 5837 5840 5842 5843 5845 5847 5848 5849 5850 5851 5852 5852 5853 5853 5853 5853 5853 5852 5852 5851 5850 5850 5849 5848 5847 5845 5844 5843 5841 5839 5838 5836 5835 5833 5831 5829 5828 5826
5819 5822 5825 5828 5830 5833 5835 5837 5839 5841 5842 5844 5845 5846 5847 5848 5848 5849 5849 5849 5849 5848 5848 5847 5847 5846 5845 5844 5843 5842 5840 5839 5837 5835 5834 5832 5830 5828 5826 5824 5823 5821 5819
5813 5817 5820 5823 5825 5828 5830 5832 5834 5836 5838 5840 5841 5842 5843 5843 5844 5844 5844 5844 5844 5844 5843 5843 5842 5841 5840 5839 5838 5836 5835 5833 5831 5829 5828 5826 5824 5822 5820 5818 5816 5814 5812
5807 5811 5814 5817 5820 5822 5825 5827 5830 5832 5833 5835 5836 5837 5838 5839 5839 5839 5839 5839 5839 5839 5838 5838 5837 5836 5835 5834 5832 5831 5829 5827 5825 5823 5821 5819 5817 5815 5813 5811 5809 5806 5804
5801 5805 5808 5811 5814 5817 5819 5822 5824 5826 5828 5830 5831 5832 5833 5833 5834 5834 5834 5834 5834 5834 5833 5832 5832 5831 5829 5828 5826 5825 5823 5821 5819 5817 5815 5813 5810 5808 5805 5803 5801 5799 5797
5795 5798 5802 5805 5808 5811 5814 5816 5818 5821 5823 5824 5825 5826 5827 5828 5828 5828 5829 5828 5828 5828 5828 5827 5826 5825 5824 5822 5820 5819 5817 5815 5813 5811 5808 5806 5803 5800 5798 5795 5793 5791 5789
5788 5792 5796 5799 5802 5805 5808 5810 5812 5814 5817 5818 5819 5820 5821 5822 5822 5823 5823 5823 5822 5822 5822 5821 5820 5819 5818 5816 5814 5812 5810 5808 5806 5804 5801 5798 5796 5793 5790 5787 5785 5783 5780
5781 5785 5789 5793 5796 5799 5802 5804 5806 5808 5810 5812 5813 5814 5815 5816 5816 5816 5816 5816 5816 5816 5815 5815 5814 5813 5811 5809 5807 5805 5803 5801 5799 5796 5794 5791 5788 5785 5782 5780 5777 5774 5772
5774 5778 5782 5786 5789 5792 5795 5798 5799 5802 5804 5806 5807 5808 5809 5809 5810 5810 5810 5810 5809 5809 5809 5808 5807 5806 5804 5802 5801 5799 5797 5794 5792 5789 5786 5784 5781 5778 5775 5772 5769 5766 5763
5767 5771 5775 5779 5783 5786 5788 5791 5793 5796 5798 5799 5801 5802 5802 5803 5804 5803 5803 5803 5803 5803 5802 5802 5801 5800 5798 5796 5794 5792 5790 5787 5785 5782 5779 5776 5773 5771 5768 5764 5761 5758 5754
5759 5764 5768 5772 5775 5779 5781 5784 5787 5789 5791 5792 5794 5795 5796 5797 5797 5797 5797 5797 5796 5796 5796 5795 5794 5792 5791 5789 5787 5785 5783 5780 5777 5775 5772 5769 5766 5763 5760 5757 5753 5750 5746
5752 5756 5760 5764 5768 5771 5775 5777 5780 5782 5784 5785 5787 5788 5789 5790 5790 5791 5790 5790 5790 5789 5789 5788 5786 5785 5783 5781 5780 5778 5776 5773 5771 5768 5765 5762 5759 5756 5752 5749 5745 5742 5738
5744 5748 5753 5756 5760 5764 5767 5770 5772 5775 5777 5778 5780 5781 5782 5783 5783 5783 5783 5783 5783 5782 5781 5780 5779 5778 5776 5774 5773 5771 5770 5768 5764 5761 5758 5755 5751 5748 5745 5741 5737 5733 5729
5736 5740 5745 5748 5752 5756 5759 5762 5764 5767 5769 5771 5773 5774 5775 5775 5776 5776 5776 5775 5775 5775 5774 5773 5772 5770 5769 5767 5765 5764 5762 5761 5758 5755 5752 5748 5744 5741 5737 5733 5729 5725 5721
5728 5732 5737 5741 5744 5748 5751 5754 5756 5759 5761 5763 5765 5766 5767 5768 5768 5768 5769 5768 5768 5768 5767 5766 5764 5763 5762 5760 5758 5756 5755 5752 5750 5748 5745 5741 5737 5733 5729 5725 5721 5717 5713
5719 5724 5728 5732 5736 5739 5743 5746 5748 5751 5753 5755 5756 5758 5759 5760 5760 5761 5761 5761 5760 5760 5759 5758 5757 5756 5754 5752 5751 5749 5747 5745 5742 5740 5738 5735 5730 5726 5722 5718 5714 5710 5706
5711 5716 5720 5724 5727 5731 5734 5737 5740 5742 5744 5746 5748 5750 5751 5752 5752 5753 5753 5753 5753 5752 5752 5751 5750 5748 5747 5745 5743 5741 5739 5738 5735 5732 5729 5726 5723 5719 5715 5711 5707 5703 5699
Wind_Speed
17 17 16 15 14 13 12 12 11 10 10 9 8 8 8 8 7 7 7 8 8 8 8 9 9 10 10 11 11 12 12 13 13 14 14 14 14 15 15 15 16 16 16
19 19 18 17 16 15 14 13 13 12 11 11 10 10 9 9 9 9 9 9 9 10 10 11 11 12 12 13 13 13 14 14 15 15 15 16 16 16 16 17 17 18 18
21 20 20 18 17 17 16 15 14 14 13 12 12 12 11 11 11 11 11 11 12 12 12 13 13 13 14 14 14 15 15 16 16 16 16 17 17 18 18 18 19 19 20
22 22 21 20 19 18 18 17 16 15 15 14 14 13 13 13 13 13 13 13 14 14 14 14 15 15 16 16 16 16 17 17 17 17 17 18 19 19 20 20 20 21 21
24 23 22 21 20 20 19 19 18 17 16 16 16 15 15 14 14 14 15 15 15 16 16 16 17 17 17 18 18 18 18 19 19 19 19 20 20 21 21 21 22 22 23
26 25 24 23 22 21 21 20 19 18 18 17 17 17 16 16 16 16 16 16 17 17 17 18 18 18 19 19 19 20 20 20 20 20 21 21 22 22 23 23 24 24 24
27 26 26 25 24 23 22 21 20 20 20 19 18 18 17 17 17 17 18 18 18 19 19 19 19 20 20 20 20 20 20 21 21 22 22 23 24 24 25 25 25 26 26
29 28 27 26 25 24 23 22 22 21 21 20 19 19 19 19 19 19 19 20 20 20 20 21 21 21 22 22 22 22 22 22 23 23 24 25 25 26 27 27 27 28 28
30 29 28 27 26 25 25 24 23 23 22 21 21 20 20 20 20 20 21 21 21 22 22 22 22 23 23 23 23 24 24 25 25 25 26 26 27 28 28 29 29 29 30
31 30 29 29 28 27 26 26 25 24 23 23 22 22 21 21 21 21 22 22 22 23 23 23 23 23 23 24 24 25 25 26 27 27 28 28 29 29 30 30 31 31 31
32 32 31 30 29 29 28 27 26 25 25 24 23 23 23 23 23 23 23 23 23 24 24 24 24 24 25 25 25 26 27 28 28 29 29 30 30 31 31 32 32 32 32
34 33 32 31 31 30 29 28 27 26 26 25 25 24 24 24 24 24 24 25 25 25 25 25 25 26 26 26 27 28 28 29 30 30 31 31 32 32 32 33 33 33 34
35 34 33 32 32 31 30 29 28 28 27 27 26 26 25 25 26 26 26 26 26 26 26 26 26 27 27 28 28 29 29 30 30 31 32 33 33 33 34 34 34 34 34
35 35 34 33 32 31 31 30 29 29 28 28 27 27 27 27 27 27 27 27 27 27 27 27 27 28 28 28 29 30 30 31 32 32 33 33 34 34 35 36 35 35 35
37 36 35 34 34 33 32 31 31 30 29 28 28 28 28 28 28 28 28 29 28 28 28 28 28 29 29 30 31 31 32 32 33 34 34 34 34 35 36 35 35 36 36
38 37 36 35 34 34 33 31 31 31 30 30 29 29 29 29 29 29 29 29 29 29 29 29 30 31 31 32 32 32 32 33 34 34 34 35 35 35 35 35 35 35 36
39 38 37 36 35 34 33 32 32 32 31 30 30 30 30 29 29 29 30 30 30 30 30 30 31 32 32 32 32 32 33 34 34 34 35 35 35 35 35 35 35 36 36
40 39 38 37 36 35 34 33 32 32 31 30 30 30 30 29 29 29 30 29 29 29 30 30 31 32 32 32 32 33 33 34 34 34 35 35 34 34 34 35 36 36 37
40 39 38 38 37 36 35 35 33 32 32 32 31 31 31 30 29 29 29 29 29 29 30 31 32 32 33 33 32 32 32 33 33 34 34 34 33 33 34 34 35 35 36
41 40 39 38 38 37 36 36 35 34 32 32 32 31 31 31 30 30 30 30 30 31 31 32 32 33 33 33 32 32 32 32 33 33 33 33 33 34 34 34 34 35 35
41 40 40 39 38 38 37 37 36 34 33 33 33 32 31 31 31 31 32 33 32 32 32 32 32 32 33 32 32 32 32 32 33 33 33 33 34 34 34 34 34 35 34
41 40 40 40 39 39 38 38 37 36 35 34 34 33 32 32 32 33 33 33 33 33 33 33 32 32 32 32 32 31 31 31 32 32 33 34 34 34 35 35 35 36 35
41 41 40 40 39 39 39 38 38 37 36 35 34 34 34 34 33 33 32 33 33 33 33 33 32 32 32 32 32 32 32 32 32 33 33 34 34 34 35 36 35 35 35
42 41 41 40 40 39 39 39 38 37 37 36 35 35 35 35 34 34 33 33 33 33 33 33 32 33 33 32 31 32 32 33 33 33 33 34 35 35 35 35 35 34 34
42 42 41 41 40 40 40 39 39 38 37 36 36 35 35 35 35 34 34 34 33 33 33 33 33 33 33 33 33 33 34 34 34 34 33 33 34 34 34 34 34 33 33
42 41 41 41 41 40 40 40 39 39 38 37 36 36 35 35 35 34 34 34 34 33 34 33 34 34 34 34 35 35 35 35 34 34 33 32 33 33 33 33 32 32 32
Wind_Direction
229 231 230 231 232 233 233 232 233 234 238 240 240 242 247 254 259 265 272 275 280 286 293 298 301 303 304 305 305 305 305 306 306 306 307 307 307 307 307 307 307 307 307
231 232 232 234 234 235 236 236 236 237 239 242 244 247 252 258 263 267 272 276 280 285 290 294 298 301 302 302 302 302 302 302 303 304 304 305 305 304 304 304 304 304 303
233 233 234 234 235 236 237 238 238 239 241 243 247 250 255 261 266 270 274 277 281 284 288 292 295 299 301 301 301 300 299 299 300 301 301 301 302 302 302 302 301 301 301
234 235 235 235 237 238 238 239 240 242 243 245 249 253 258 263 267 271 274 277 280 284 287 291 293 296 297 299 299 299 298 298 298 298 299 298 299 299 300 300 300 300 300
234 235 235 236 237 238 239 240 243 244 245 248 252 255 259 263 267 270 275 278 281 283 286 289 291 293 295 296 297 297 297 296 296 296 297 297 297 298 299 299 299 299 299
235 235 236 237 237 239 240 242 243 245 247 250 253 256 260 264 266 270 275 278 281 283 286 288 290 292 294 295 296 296 296 296 295 296 296 297 297 298 298 298 298 297 298
235 235 236 237 237 239 240 242 244 247 250 251 254 257 260 263 267 271 274 277 280 283 285 287 289 291 293 294 295 295 295 295 295 296 296 296 297 297 297 297 296 296 296
235 235 235 237 237 238 240 242 245 247 249 251 255 258 261 263 267 271 274 277 279 281 283 286 288 290 292 293 294 295 295 295 295 295 295 296 296 296 296 296 295 295 295
235 234 234 235 237 238 239 241 244 247 249 252 255 258 261 264 268 272 274 277 279 280 283 285 288 290 291 292 294 295 296 296 295 295 295 295 295 295 295 295 294 294 293
234 234 235 236 236 237 239 241 244 246 249 252 255 259 262 266 269 271 274 276 279 281 283 285 287 289 290 292 293 294 295 295 296 296 296 295 295 294 294 294 293 292 292
234 234 234 235 236 238 240 242 244 246 250 253 256 259 263 267 269 272 274 276 278 280 282 284 286 288 290 291 293 294 295 296 296 296 295 295 295 295 294 293 293 292 291
234 233 233 235 237 239 240 242 245 247 250 254 258 261 264 267 269 272 274 276 278 280 282 283 285 287 289 291 292 294 295 295 295 295 295 295 295 296 295 294 293 292 291
233 233 234 236 237 240 241 243 246 249 252 255 259 262 264 267 270 272 274 277 279 280 282 283 285 287 288 291 293 294 295 295 296 296 296 296 295 295 295 295 294 292 292
232 234 235 237 238 240 242 244 247 250 253 257 260 263 265 267 269 272 274 276 278 279 281 282 285 286 288 290 292 293 294 295 296 296 297 297 296 295 295 294 294 293 292
233 234 235 237 238 240 243 245 247 251 254 257 260 263 266 267 269 271 273 275 277 278 280 282 284 286 288 290 292 293 294 295 296 296 297 297 297 296 295 294 294 293 292
234 235 236 237 239 241 244 246 248 250 253 256 260 263 265 267 269 271 272 275 276 278 279 281 284 286 288 290 291 292 294 295 296 297 297 297 298 297 296 295 294 293 292
234 236 237 238 240 242 244 246 249 250 253 256 259 263 265 267 269 271 272 274 276 277 279 281 283 286 288 290 291 292 294 296 297 297 298 298 298 297 297 296 294 294 293
234 236 238 239 240 242 244 246 249 250 252 256 260 262 265 267 268 270 271 273 276 277 279 282 284 287 289 291 292 293 294 296 297 297 298 299 299 298 297 296 295 294 293
234 236 238 239 241 242 244 246 249 251 253 256 259 262 264 265 267 270 272 273 275 278 279 281 285 287 289 291 292 293 295 297 297 298 299 299 299 299 299 298 297 296 295
234 235 237 239 241 243 245 247 249 252 253 256 259 261 263 264 266 268 271 275 277 278 281 282 284 286 289 290 291 293 295 296 298 299 299 300 300 300 300 299 299 298 296
235 235 237 239 241 243 245 247 249 252 254 257 259 261 262 264 266 269 272 274 277 280 282 283 284 286 288 289 289 291 293 295 297 297 299 301 301 300 300 300 300 300 299
235 236 237 239 241 243 245 247 250 252 254 257 259 261 262 265 268 270 273 275 276 279 281 283 284 286 288 288 288 289 291 292 295 296 298 300 301 300 301 300 300 301 300
235 237 238 239 241 243 245 247 250 252 255 257 259 261 263 265 267 270 272 274 275 278 281 283 284 285 287 287 287 288 289 291 294 296 298 300 301 302 303 302 302 302 301
236 238 239 240 242 243 245 247 250 253 254 256 258 261 263 265 267 269 271 273 276 278 279 282 284 285 286 287 288 289 291 293 294 297 299 300 301 302 303 302 303 303 303
237 238 240 241 242 244 245 247 250 252 253 255 258 260 262 265 267 269 270 272 275 278 278 281 284 284 286 286 287 289 291 292 295 298 299 301 301 302 303 303 303 303 304
237 238 240 241 243 244 246 248 250 252 253 255 257 259 261 264 266 268 270 273 275 277 278 281 283 284 285 287 288 289 291 293 295 298 299 301 302 302 302 302 303 304 304